Tracking 20369 objects as of 18-Feb-2020
HD Live streaming from Space Station
objects crossing your sky now

DMSP 5D-2 F15 (USA 147)

Track DMSP 5D-2 F15 (USA 147) now!
10-day predictions
DMSP 5D-2 F15 (USA 147) is classified as:


NORAD ID: 25991
Int'l Code: 1999-067A
Perigee: 836.5 km
Apogee: 852.2 km
Inclination: 99.0 °
Period: 101.7 minutes
Semi major axis: 7215 km
RCS: Unknown
Launch date: December 12, 1999
Source: United States (US)
Launch site: AIR FORCE WESTERN TEST RANGE (AFWTR)

Near-polar orbits; investigate Earth's environment.
aabbcc
Your satellite tracking list
Your tracking list is empty




NASA's NSSDC Master Catalog

Two Line Element Set (TLE):
1 25991U 99067A   20048.86540189 -.00000111 +00000-0 -32843-4 0  9991
2 25991 098.9537 019.4076 0010854 083.6864 337.9130 14.16496614043352
Source of the keplerian elements: McCants